Year,Month,Day,Hour,Minute,Value (Times are PST for temperature in C)
2019,04,01,00,00,4.50
2019,04,01,00,01,4.50
2019,04,01,00,02,4.50
2019,04,01,00,03,4.50
2019,04,01,00,04,4.60
2019,04,01,00,05,4.60
2019,04,01,00,06,4.50
2019,04,01,00,07,4.50
2019,04,01,00,08,4.50
2019,04,01,00,09,4.50
2019,04,01,00,10,4.50
2019,04,01,00,11,4.50
2019,04,01,00,12,4.50
2019,04,01,00,13,4.50
2019,04,01,00,14,4.50
2019,04,01,00,15,4.40
2019,04,01,00,16,4.40
2019,04,01,00,17,4.40
2019,04,01,00,18,4.40
2019,04,01,00,19,4.40
2019,04,01,00,20,4.40
2019,04,01,00,21,4.30
2019,04,01,00,22,4.30
2019,04,01,00,23,4.30
2019,04,01,00,24,4.30
2019,04,01,00,25,4.30
2019,04,01,00,26,4.30
2019,04,01,00,27,4.30
2019,04,01,00,28,4.30
2019,04,01,00,29,4.30
2019,04,01,00,30,4.30
2019,04,01,00,31,4.30
2019,04,01,00,32,4.30
2019,04,01,00,33,4.30
2019,04,01,00,34,4.30
2019,04,01,00,35,4.30
2019,04,01,00,36,4.30
2019,04,01,00,37,4.30
2019,04,01,00,38,4.20
2019,04,01,00,39,4.20
2019,04,01,00,40,4.20
2019,04,01,00,41,4.20
2019,04,01,00,42,4.20
2019,04,01,00,43,4.20
2019,04,01,00,44,4.20
2019,04,01,00,45,4.20
2019,04,01,00,46,4.20
2019,04,01,00,47,4.20
2019,04,01,00,48,4.20
2019,04,01,00,49,4.20
2019,04,01,00,50,4.20
2019,04,01,00,51,4.20
2019,04,01,00,52,4.20
2019,04,01,00,53,4.20
2019,04,01,00,54,4.20
2019,04,01,00,55,4.10
2019,04,01,00,56,4.10
2019,04,01,00,57,4.10
2019,04,01,00,58,4.10
2019,04,01,00,59,4.10
2019,04,01,01,00,4.10
2019,04,01,01,01,4.00
2019,04,01,01,02,4.00
2019,04,01,01,03,4.00
2019,04,01,01,04,4.00
2019,04,01,01,05,4.00
2019,04,01,01,06,4.00
2019,04,01,01,07,4.00
2019,04,01,01,08,3.90
2019,04,01,01,09,3.90
2019,04,01,01,10,3.90
2019,04,01,01,11,3.90
2019,04,01,01,12,4.00
2019,04,01,01,13,4.00
2019,04,01,01,14,4.00
2019,04,01,01,15,4.00
2019,04,01,01,16,4.00
2019,04,01,01,17,4.00
2019,04,01,01,18,4.00
2019,04,01,01,19,4.00
2019,04,01,01,20,4.00
2019,04,01,01,21,4.00
2019,04,01,01,22,4.10
2019,04,01,01,23,4.00
2019,04,01,01,24,4.10
2019,04,01,01,25,4.00
2019,04,01,01,26,4.10
2019,04,01,01,27,4.10
2019,04,01,01,28,4.10
2019,04,01,01,29,4.10
2019,04,01,01,30,4.20
2019,04,01,01,31,4.20
2019,04,01,01,32,4.20
2019,04,01,01,33,4.20
2019,04,01,01,34,4.20
2019,04,01,01,35,4.20
2019,04,01,01,36,4.20
2019,04,01,01,37,4.30
2019,04,01,01,38,4.30
2019,04,01,01,39,4.30
2019,04,01,01,40,4.30
2019,04,01,01,41,4.30
2019,04,01,01,42,4.30
2019,04,01,01,43,4.30
2019,04,01,01,44,4.30
2019,04,01,01,45,4.30
2019,04,01,01,46,4.30
2019,04,01,01,47,4.30
2019,04,01,01,48,4.30
2019,04,01,01,49,4.30
2019,04,01,01,50,4.30
2019,04,01,01,51,4.30
2019,04,01,01,52,4.30
2019,04,01,01,53,4.30
2019,04,01,01,54,4.30
2019,04,01,01,55,4.30
2019,04,01,01,56,4.30
2019,04,01,01,57,4.30
2019,04,01,01,58,4.30
2019,04,01,01,59,4.30
2019,04,01,02,00,4.30
2019,04,01,02,01,4.30
2019,04,01,02,02,4.30
2019,04,01,02,03,4.30
2019,04,01,02,04,4.30
2019,04,01,02,05,4.30
2019,04,01,02,06,4.30
2019,04,01,02,07,4.30
2019,04,01,02,08,4.20
2019,04,01,02,09,4.20
2019,04,01,02,10,4.20
2019,04,01,02,11,4.20
2019,04,01,02,12,4.20
2019,04,01,02,13,4.20
2019,04,01,02,14,4.20
2019,04,01,02,15,4.10
2019,04,01,02,16,4.10
2019,04,01,02,17,4.10
2019,04,01,02,18,4.10
2019,04,01,02,19,4.10
2019,04,01,02,20,4.10
2019,04,01,02,21,4.10
2019,04,01,02,22,4.10
2019,04,01,02,23,4.10
2019,04,01,02,24,4.10
2019,04,01,02,25,4.10
2019,04,01,02,26,4.10
2019,04,01,02,27,4.10
2019,04,01,02,28,4.10
2019,04,01,02,29,4.10
2019,04,01,02,30,4.10
2019,04,01,02,31,4.10
2019,04,01,02,32,4.10
2019,04,01,02,33,4.10
2019,04,01,02,34,4.10
2019,04,01,02,35,4.10
2019,04,01,02,36,4.10
2019,04,01,02,37,4.10
2019,04,01,02,38,4.10
2019,04,01,02,39,4.10
2019,04,01,02,40,4.10
2019,04,01,02,41,4.10
2019,04,01,02,42,4.00
2019,04,01,02,43,4.00
2019,04,01,02,44,4.00
2019,04,01,02,45,4.00
2019,04,01,02,46,4.00
2019,04,01,02,47,4.00
2019,04,01,02,48,4.00
2019,04,01,02,49,4.00
2019,04,01,02,50,4.00
2019,04,01,02,51,4.00
2019,04,01,02,52,4.00
2019,04,01,02,53,4.00
2019,04,01,02,54,3.90
2019,04,01,02,55,3.90
2019,04,01,02,56,3.90
2019,04,01,02,57,3.90
2019,04,01,02,58,3.90
2019,04,01,02,59,3.90
2019,04,01,03,00,3.90
2019,04,01,03,01,3.90
2019,04,01,03,02,3.90
2019,04,01,03,03,3.90
2019,04,01,03,04,3.90
2019,04,01,03,05,3.90
2019,04,01,03,06,3.90
2019,04,01,03,07,3.90
2019,04,01,03,08,3.90
2019,04,01,03,09,3.80
2019,04,01,03,10,3.80
2019,04,01,03,11,3.80
2019,04,01,03,12,3.80
2019,04,01,03,13,3.80
2019,04,01,03,14,3.80
2019,04,01,03,15,3.80
2019,04,01,03,16,3.80
2019,04,01,03,17,3.80
2019,04,01,03,18,3.80
2019,04,01,03,19,3.90
2019,04,01,03,20,3.90
2019,04,01,03,21,3.90
2019,04,01,03,22,3.90
2019,04,01,03,23,4.00
2019,04,01,03,24,4.00
2019,04,01,03,25,4.00
2019,04,01,03,26,4.00
2019,04,01,03,27,4.10
2019,04,01,03,28,4.10
2019,04,01,03,29,4.10
2019,04,01,03,30,4.10
2019,04,01,03,31,4.10
2019,04,01,03,32,4.10
2019,04,01,03,33,4.20
2019,04,01,03,34,4.20
2019,04,01,03,35,4.20
2019,04,01,03,36,4.20
2019,04,01,03,37,4.20
2019,04,01,03,38,4.20
2019,04,01,03,39,4.20
2019,04,01,03,40,4.20
2019,04,01,03,41,4.20
2019,04,01,03,42,4.20
2019,04,01,03,43,4.20
2019,04,01,03,44,4.20
2019,04,01,03,45,4.20
2019,04,01,03,46,4.20
2019,04,01,03,47,4.20
2019,04,01,03,48,4.10
2019,04,01,03,49,4.10
2019,04,01,03,50,4.10
2019,04,01,03,51,4.10
2019,04,01,03,52,4.10
2019,04,01,03,53,4.10
2019,04,01,03,54,4.10
2019,04,01,03,55,4.10
2019,04,01,03,56,4.10
2019,04,01,03,57,4.20
2019,04,01,03,58,4.20
2019,04,01,03,59,4.20
2019,04,01,04,00,4.20
2019,04,01,04,01,4.30
2019,04,01,04,02,4.30
2019,04,01,04,03,4.30
2019,04,01,04,04,4.30
2019,04,01,04,05,4.40
2019,04,01,04,06,4.40
2019,04,01,04,07,4.40
2019,04,01,04,08,4.50
2019,04,01,04,09,4.50
2019,04,01,04,10,4.50
2019,04,01,04,11,4.60
2019,04,01,04,12,4.60
2019,04,01,04,13,4.60
2019,04,01,04,14,4.60
2019,04,01,04,15,4.60
2019,04,01,04,16,4.60
2019,04,01,04,17,4.60
2019,04,01,04,18,4.60
2019,04,01,04,19,4.60
2019,04,01,04,20,4.50
2019,04,01,04,21,4.50
2019,04,01,04,22,4.50
2019,04,01,04,23,4.50
2019,04,01,04,24,4.40
2019,04,01,04,25,4.40
2019,04,01,04,26,4.40
2019,04,01,04,27,4.40
2019,04,01,04,28,4.40
2019,04,01,04,29,4.40
2019,04,01,04,30,4.40
2019,04,01,04,31,4.40
2019,04,01,04,32,4.40
2019,04,01,04,33,4.40
2019,04,01,04,34,4.40
2019,04,01,04,35,4.40
2019,04,01,04,36,4.40
2019,04,01,04,37,4.40
2019,04,01,04,38,4.40
2019,04,01,04,39,4.40
2019,04,01,04,40,4.40
2019,04,01,04,41,4.40
2019,04,01,04,42,4.30
2019,04,01,04,43,4.30
2019,04,01,04,44,4.30
2019,04,01,04,45,4.30
2019,04,01,04,46,4.30
2019,04,01,04,47,4.30
2019,04,01,04,48,4.30
2019,04,01,04,49,4.30
2019,04,01,04,50,4.20
2019,04,01,04,51,4.20
2019,04,01,04,52,4.20
2019,04,01,04,53,4.20
2019,04,01,04,54,4.20
2019,04,01,04,55,4.10
2019,04,01,04,56,4.10
2019,04,01,04,57,4.10
2019,04,01,04,58,4.00
2019,04,01,04,59,4.00
2019,04,01,05,00,4.00
2019,04,01,05,01,4.00
2019,04,01,05,02,4.00
2019,04,01,05,03,4.00
2019,04,01,05,04,4.00
2019,04,01,05,05,4.00
2019,04,01,05,06,4.00
2019,04,01,05,07,4.10
2019,04,01,05,08,4.10
2019,04,01,05,09,4.20
2019,04,01,05,10,4.20
2019,04,01,05,11,4.20
2019,04,01,05,12,4.30
2019,04,01,05,13,4.30
2019,04,01,05,14,4.30
2019,04,01,05,15,4.30
2019,04,01,05,16,4.30
2019,04,01,05,17,4.30
2019,04,01,05,18,4.30
2019,04,01,05,19,4.30
2019,04,01,05,20,4.30
2019,04,01,05,21,4.30
2019,04,01,05,22,4.30
2019,04,01,05,23,4.30
2019,04,01,05,24,4.30
2019,04,01,05,25,4.30
2019,04,01,05,26,4.30
2019,04,01,05,27,4.30
2019,04,01,05,28,4.30
2019,04,01,05,29,4.30
2019,04,01,05,30,4.30
2019,04,01,05,31,4.30
2019,04,01,05,32,4.30
2019,04,01,05,33,4.30
2019,04,01,05,34,4.30
2019,04,01,05,35,4.30
2019,04,01,05,36,4.30
2019,04,01,05,37,4.40
2019,04,01,05,38,4.40
2019,04,01,05,39,4.40
2019,04,01,05,40,4.40
2019,04,01,05,41,4.40
2019,04,01,05,42,4.40
2019,04,01,05,43,4.40
2019,04,01,05,44,4.40
2019,04,01,05,45,4.40
2019,04,01,05,46,4.40
2019,04,01,05,47,4.40
2019,04,01,05,48,4.40
2019,04,01,05,49,4.40
2019,04,01,05,50,4.40
2019,04,01,05,51,4.40
2019,04,01,05,52,4.40
2019,04,01,05,53,4.40
2019,04,01,05,54,4.40
2019,04,01,05,55,4.40
2019,04,01,05,56,4.40
2019,04,01,05,57,4.30
2019,04,01,05,58,4.30
2019,04,01,05,59,4.30
2019,04,01,06,00,4.30
2019,04,01,06,01,4.30
2019,04,01,06,02,4.30
2019,04,01,06,03,4.40
2019,04,01,06,04,4.40
2019,04,01,06,05,4.40
2019,04,01,06,06,4.40
2019,04,01,06,07,4.40
2019,04,01,06,08,4.40
2019,04,01,06,09,4.40
2019,04,01,06,10,4.40
2019,04,01,06,11,4.40
2019,04,01,06,12,4.40
2019,04,01,06,13,4.40
2019,04,01,06,14,4.30
2019,04,01,06,15,4.30
2019,04,01,06,16,4.30
2019,04,01,06,17,4.30
2019,04,01,06,18,4.30
2019,04,01,06,19,4.30
2019,04,01,06,20,4.30
2019,04,01,06,21,4.30
2019,04,01,06,22,4.30
2019,04,01,06,23,4.30
2019,04,01,06,24,4.30
2019,04,01,06,25,4.40
2019,04,01,06,26,4.40
2019,04,01,06,27,4.40
2019,04,01,06,28,4.40
2019,04,01,06,29,4.40
2019,04,01,06,30,4.40
2019,04,01,06,31,4.40
2019,04,01,06,32,4.40
2019,04,01,06,33,4.40
2019,04,01,06,34,4.40
2019,04,01,06,35,4.40
2019,04,01,06,36,4.40
2019,04,01,06,37,4.40
2019,04,01,06,38,4.40
2019,04,01,06,39,4.40
2019,04,01,06,40,4.40
2019,04,01,06,41,4.30
2019,04,01,06,42,4.30
2019,04,01,06,43,4.30
2019,04,01,06,44,4.30
2019,04,01,06,45,4.30
2019,04,01,06,46,4.30
2019,04,01,06,47,4.30
2019,04,01,06,48,4.30
2019,04,01,06,49,4.30
2019,04,01,06,50,4.30
2019,04,01,06,51,4.30
2019,04,01,06,52,4.30
2019,04,01,06,53,4.30
2019,04,01,06,54,4.30
2019,04,01,06,55,4.40
2019,04,01,06,56,4.40
2019,04,01,06,57,4.40
2019,04,01,06,58,4.40
2019,04,01,06,59,4.40
2019,04,01,07,00,4.40
2019,04,01,07,01,4.40
2019,04,01,07,02,4.40
2019,04,01,07,03,4.40
2019,04,01,07,04,4.40
2019,04,01,07,05,4.40
2019,04,01,07,06,4.40
2019,04,01,07,07,4.40
2019,04,01,07,08,4.40
2019,04,01,07,09,4.40
2019,04,01,07,10,4.50
2019,04,01,07,11,4.50
2019,04,01,07,12,4.50
2019,04,01,07,13,4.50
2019,04,01,07,14,4.50
2019,04,01,07,15,4.50
2019,04,01,07,16,4.50
2019,04,01,07,17,4.50
2019,04,01,07,18,4.50
2019,04,01,07,19,4.50
2019,04,01,07,20,4.60
2019,04,01,07,21,4.60
2019,04,01,07,22,4.60
2019,04,01,07,23,4.70
2019,04,01,07,24,4.70
2019,04,01,07,25,4.70
2019,04,01,07,26,4.70
2019,04,01,07,27,4.80
2019,04,01,07,28,4.80
2019,04,01,07,29,4.80
2019,04,01,07,30,4.80
2019,04,01,07,31,4.90
2019,04,01,07,32,4.90
2019,04,01,07,33,4.90
2019,04,01,07,34,5.00
2019,04,01,07,35,5.00
2019,04,01,07,36,5.00
2019,04,01,07,37,5.10
2019,04,01,07,38,5.10
2019,04,01,07,39,5.10
2019,04,01,07,40,5.10
2019,04,01,07,41,5.20
2019,04,01,07,42,5.20
2019,04,01,07,43,5.20
2019,04,01,07,44,5.30
2019,04,01,07,45,5.30
2019,04,01,07,46,5.40
2019,04,01,07,47,5.50
2019,04,01,07,48,5.50
2019,04,01,07,49,5.60
2019,04,01,07,50,5.70
2019,04,01,07,51,5.80
2019,04,01,07,52,5.80
2019,04,01,07,53,5.90
2019,04,01,07,54,6.00
2019,04,01,07,55,6.10
2019,04,01,07,56,6.20
2019,04,01,07,57,6.30
2019,04,01,07,58,6.40
2019,04,01,07,59,6.40
2019,04,01,08,00,6.50
2019,04,01,08,01,6.60
2019,04,01,08,02,6.70
2019,04,01,08,03,6.80
2019,04,01,08,04,7.00
2019,04,01,08,05,7.00
2019,04,01,08,06,7.10
2019,04,01,08,07,7.20
2019,04,01,08,08,7.30
2019,04,01,08,09,7.30
2019,04,01,08,10,7.40
2019,04,01,08,11,7.50
2019,04,01,08,12,7.60
2019,04,01,08,13,7.60
2019,04,01,08,14,7.70
2019,04,01,08,15,7.80
2019,04,01,08,16,7.90
2019,04,01,08,17,7.90
2019,04,01,08,18,8.00
2019,04,01,08,19,8.10
2019,04,01,08,20,8.10
2019,04,01,08,21,8.20
2019,04,01,08,22,8.30
2019,04,01,08,23,8.30
2019,04,01,08,24,8.40
2019,04,01,08,25,8.50
2019,04,01,08,26,8.60
2019,04,01,08,27,8.70
2019,04,01,08,28,8.80
2019,04,01,08,29,8.90
2019,04,01,08,30,9.00
2019,04,01,08,31,9.10
2019,04,01,08,32,9.20
2019,04,01,08,33,9.30
2019,04,01,08,34,9.40
2019,04,01,08,35,9.50
2019,04,01,08,36,9.60
2019,04,01,08,37,9.60
2019,04,01,08,38,9.70
2019,04,01,08,39,9.80
2019,04,01,08,40,9.90
2019,04,01,08,41,10.00
2019,04,01,08,42,10.10
2019,04,01,08,43,10.20
2019,04,01,08,44,10.30
2019,04,01,08,45,10.30
2019,04,01,08,46,10.40
2019,04,01,08,47,10.50
2019,04,01,08,48,10.60
2019,04,01,08,49,10.60
2019,04,01,08,50,10.70
2019,04,01,08,51,10.70
2019,04,01,08,52,10.80
2019,04,01,08,53,10.80
2019,04,01,08,54,10.90
2019,04,01,08,55,10.90
2019,04,01,08,56,11.00
2019,04,01,08,57,11.10
2019,04,01,08,58,11.10
2019,04,01,08,59,11.20
2019,04,01,09,00,11.20
2019,04,01,09,01,11.30
2019,04,01,09,02,11.30
2019,04,01,09,03,11.40
2019,04,01,09,04,11.40
2019,04,01,09,05,11.50
2019,04,01,09,06,11.50
2019,04,01,09,07,11.60
2019,04,01,09,08,11.60
2019,04,01,09,09,11.70
2019,04,01,09,10,11.70
2019,04,01,09,11,11.80
2019,04,01,09,12,11.80
2019,04,01,09,13,11.80
2019,04,01,09,14,11.90
2019,04,01,09,15,11.90
2019,04,01,09,16,11.90
2019,04,01,09,17,12.00
2019,04,01,09,18,12.00
2019,04,01,09,19,12.10
2019,04,01,09,20,12.10
2019,04,01,09,21,12.20
2019,04,01,09,22,12.20
2019,04,01,09,23,12.20
2019,04,01,09,24,12.20
2019,04,01,09,25,12.20
2019,04,01,09,26,12.20
2019,04,01,09,27,12.20
2019,04,01,09,28,12.30
2019,04,01,09,29,12.30
2019,04,01,09,30,12.30
2019,04,01,09,31,12.30
2019,04,01,09,32,12.30
2019,04,01,09,33,12.40
2019,04,01,09,34,12.40
2019,04,01,09,35,12.40
2019,04,01,09,36,12.40
2019,04,01,09,37,12.40
2019,04,01,09,38,12.40
2019,04,01,09,39,12.40
2019,04,01,09,40,12.40
2019,04,01,09,41,12.50
2019,04,01,09,42,12.50
2019,04,01,09,43,12.60
2019,04,01,09,44,12.60
2019,04,01,09,45,12.60
2019,04,01,09,46,12.60
2019,04,01,09,47,12.60
2019,04,01,09,48,12.60
2019,04,01,09,49,12.70
2019,04,01,09,50,12.70
2019,04,01,09,51,12.80
2019,04,01,09,52,12.80
2019,04,01,09,53,12.90
2019,04,01,09,54,13.00
2019,04,01,09,55,13.10
2019,04,01,09,56,13.10
2019,04,01,09,57,13.20
2019,04,01,09,58,13.20
2019,04,01,09,59,13.20
2019,04,01,10,00,13.20
2019,04,01,10,01,13.20
2019,04,01,10,02,13.20
2019,04,01,10,03,13.20
2019,04,01,10,04,13.30
2019,04,01,10,05,13.30
2019,04,01,10,06,13.30
2019,04,01,10,07,13.30
2019,04,01,10,08,13.20
2019,04,01,10,09,13.30
2019,04,01,10,10,13.30
2019,04,01,10,11,13.30
2019,04,01,10,12,13.40
2019,04,01,10,13,13.50
2019,04,01,10,14,13.50
2019,04,01,10,15,13.60
2019,04,01,10,16,13.60
2019,04,01,10,17,13.70
2019,04,01,10,18,13.70
2019,04,01,10,19,13.70
2019,04,01,10,20,13.70
2019,04,01,10,21,13.70
2019,04,01,10,22,13.70
2019,04,01,10,23,13.60
2019,04,01,10,24,13.60
2019,04,01,10,25,13.50
2019,04,01,10,26,13.50
2019,04,01,10,27,13.50
2019,04,01,10,28,13.60
2019,04,01,10,29,13.60
2019,04,01,10,30,13.60
2019,04,01,10,31,13.60
2019,04,01,10,32,13.60
2019,04,01,10,33,13.70
2019,04,01,10,34,13.70
2019,04,01,10,35,13.80
2019,04,01,10,36,13.80
2019,04,01,10,37,13.80
2019,04,01,10,38,13.80
2019,04,01,10,39,13.80
2019,04,01,10,40,13.80
2019,04,01,10,41,13.70
2019,04,01,10,42,13.70
2019,04,01,10,43,13.70
2019,04,01,10,44,13.60
2019,04,01,10,45,13.60
2019,04,01,10,46,13.60
2019,04,01,10,47,13.60
2019,04,01,10,48,13.60
2019,04,01,10,49,13.70
2019,04,01,10,50,13.80
2019,04,01,10,51,13.80
2019,04,01,10,52,13.90
2019,04,01,10,53,13.90
2019,04,01,10,54,14.00
2019,04,01,10,55,14.00
2019,04,01,10,56,14.10
2019,04,01,10,57,14.10
2019,04,01,10,58,14.10
2019,04,01,10,59,14.10
2019,04,01,11,00,14.10
2019,04,01,11,01,14.10
2019,04,01,11,02,14.10
2019,04,01,11,03,14.00
2019,04,01,11,04,14.00
2019,04,01,11,05,13.90
2019,04,01,11,06,13.80
2019,04,01,11,07,13.70
2019,04,01,11,08,13.60
2019,04,01,11,09,13.60
2019,04,01,11,10,13.70
2019,04,01,11,11,13.70
2019,04,01,11,12,13.70
2019,04,01,11,13,13.70
2019,04,01,11,14,13.70
2019,04,01,11,15,13.80
2019,04,01,11,16,13.80
2019,04,01,11,17,13.80
2019,04,01,11,18,13.80
2019,04,01,11,19,13.90
2019,04,01,11,20,13.90
2019,04,01,11,21,13.90
2019,04,01,11,22,14.00
2019,04,01,11,23,14.10
2019,04,01,11,24,14.10
2019,04,01,11,25,14.20
2019,04,01,11,26,14.20
2019,04,01,11,27,14.10
2019,04,01,11,28,14.10
2019,04,01,11,29,14.10
2019,04,01,11,30,14.10
2019,04,01,11,31,14.10
2019,04,01,11,32,14.10
2019,04,01,11,33,14.10
2019,04,01,11,34,14.10
2019,04,01,11,35,14.10
2019,04,01,11,36,14.20
2019,04,01,11,37,14.20
2019,04,01,11,38,14.30
2019,04,01,11,39,14.30
2019,04,01,11,40,14.30
2019,04,01,11,41,14.30
2019,04,01,11,42,14.30
2019,04,01,11,43,14.30
2019,04,01,11,44,14.30
2019,04,01,11,45,14.30
2019,04,01,11,46,14.30
2019,04,01,11,47,14.30
2019,04,01,11,48,14.30
2019,04,01,11,49,14.30
2019,04,01,11,50,14.40
2019,04,01,11,51,14.50
2019,04,01,11,52,14.50
2019,04,01,11,53,14.60
2019,04,01,11,54,14.70
2019,04,01,11,55,14.70
2019,04,01,11,56,14.70
2019,04,01,11,57,14.70
2019,04,01,11,58,14.80
2019,04,01,11,59,14.80
2019,04,01,12,00,14.80
2019,04,01,12,01,14.90
2019,04,01,12,02,14.90
2019,04,01,12,03,15.00
2019,04,01,12,04,15.10
2019,04,01,12,05,15.20
2019,04,01,12,06,15.20
2019,04,01,12,07,15.20
2019,04,01,12,08,15.20
2019,04,01,12,09,15.20
2019,04,01,12,10,15.20
2019,04,01,12,11,15.20
2019,04,01,12,12,15.20
2019,04,01,12,13,15.20
2019,04,01,12,14,15.20
2019,04,01,12,15,15.10
2019,04,01,12,16,15.10
2019,04,01,12,17,15.10
2019,04,01,12,18,15.10
2019,04,01,12,19,15.10
2019,04,01,12,20,15.10
2019,04,01,12,21,15.20
2019,04,01,12,22,15.20
2019,04,01,12,23,15.30
2019,04,01,12,24,15.30
2019,04,01,12,25,15.30
2019,04,01,12,26,15.30
2019,04,01,12,27,15.30
2019,04,01,12,28,15.30
2019,04,01,12,29,15.20
2019,04,01,12,30,15.20
2019,04,01,12,31,15.20
2019,04,01,12,32,15.20
2019,04,01,12,33,15.20
2019,04,01,12,34,15.20
2019,04,01,12,35,15.10
2019,04,01,12,36,15.10
2019,04,01,12,37,15.00
2019,04,01,12,38,15.00
2019,04,01,12,39,15.00
2019,04,01,12,40,15.00
2019,04,01,12,41,15.00
2019,04,01,12,42,14.90
2019,04,01,12,43,14.90
2019,04,01,12,44,14.90
2019,04,01,12,45,14.90
2019,04,01,12,46,15.00
2019,04,01,12,47,15.00
2019,04,01,12,48,15.10
2019,04,01,12,49,15.20
2019,04,01,12,50,15.20
2019,04,01,12,51,15.30
2019,04,01,12,52,15.40
2019,04,01,12,53,15.40
2019,04,01,12,54,15.50
2019,04,01,12,55,15.50
2019,04,01,12,56,15.50
2019,04,01,12,57,15.60
2019,04,01,12,58,15.60
2019,04,01,12,59,15.60
2019,04,01,13,00,15.60
2019,04,01,13,01,15.70
2019,04,01,13,02,15.70
2019,04,01,13,03,15.70
2019,04,01,13,04,15.80
2019,04,01,13,05,15.90
2019,04,01,13,06,15.90
2019,04,01,13,07,16.00
2019,04,01,13,08,16.10
2019,04,01,13,09,16.20
2019,04,01,13,10,16.20
2019,04,01,13,11,16.20
2019,04,01,13,12,16.20
2019,04,01,13,13,16.20
2019,04,01,13,14,16.20
2019,04,01,13,15,16.20
2019,04,01,13,16,16.20
2019,04,01,13,17,16.10
2019,04,01,13,18,16.10
2019,04,01,13,19,16.10
2019,04,01,13,20,16.00
2019,04,01,13,21,16.00
2019,04,01,13,22,16.00
2019,04,01,13,23,16.10
2019,04,01,13,24,16.10
2019,04,01,13,25,16.10
2019,04,01,13,26,16.10
2019,04,01,13,27,16.10
2019,04,01,13,28,16.10
2019,04,01,13,29,16.20
2019,04,01,13,30,16.20
2019,04,01,13,31,16.20
2019,04,01,13,32,16.20
2019,04,01,13,33,16.20
2019,04,01,13,34,16.20
2019,04,01,13,35,16.20
2019,04,01,13,36,16.20
2019,04,01,13,37,16.20
2019,04,01,13,38,16.30
2019,04,01,13,39,16.30
2019,04,01,13,40,16.30
2019,04,01,13,41,16.30
2019,04,01,13,42,16.30
2019,04,01,13,43,16.30
2019,04,01,13,44,16.30
2019,04,01,13,45,16.20
2019,04,01,13,46,16.30
2019,04,01,13,47,16.30
2019,04,01,13,48,16.30
2019,04,01,13,49,16.20
2019,04,01,13,50,16.20
2019,04,01,13,51,16.20
2019,04,01,13,52,16.20
2019,04,01,13,53,16.20
2019,04,01,13,54,16.20
2019,04,01,13,55,16.30
2019,04,01,13,56,16.30
2019,04,01,13,57,16.20
2019,04,01,13,58,16.20
2019,04,01,13,59,16.20
2019,04,01,14,00,16.20
2019,04,01,14,01,16.30
2019,04,01,14,02,16.30
2019,04,01,14,03,16.30
2019,04,01,14,04,16.30
2019,04,01,14,05,16.30
2019,04,01,14,06,16.30
2019,04,01,14,07,16.40
2019,04,01,14,08,16.40
2019,04,01,14,09,16.40
2019,04,01,14,10,16.40
2019,04,01,14,11,16.40
2019,04,01,14,12,16.40
2019,04,01,14,13,16.40
2019,04,01,14,14,16.40
2019,04,01,14,15,16.40
2019,04,01,14,16,16.40
2019,04,01,14,17,16.40
2019,04,01,14,18,16.30
2019,04,01,14,19,16.20
2019,04,01,14,20,16.20
2019,04,01,14,21,16.10
2019,04,01,14,22,16.10
2019,04,01,14,23,16.00
2019,04,01,14,24,16.00
2019,04,01,14,25,16.00
2019,04,01,14,26,16.00
2019,04,01,14,27,16.00
2019,04,01,14,28,16.10
2019,04,01,14,29,16.10
2019,04,01,14,30,16.20
2019,04,01,14,31,16.20
2019,04,01,14,32,16.20
2019,04,01,14,33,16.20
2019,04,01,14,34,16.30
2019,04,01,14,35,16.40
2019,04,01,14,36,16.40
2019,04,01,14,37,16.40
2019,04,01,14,38,16.40
2019,04,01,14,39,16.40
2019,04,01,14,40,16.40
2019,04,01,14,41,16.40
2019,04,01,14,42,16.40
2019,04,01,14,43,16.40
2019,04,01,14,44,16.40
2019,04,01,14,45,16.40
2019,04,01,14,46,16.50
2019,04,01,14,47,16.50
2019,04,01,14,48,16.60
2019,04,01,14,49,16.50
2019,04,01,14,50,16.50
2019,04,01,14,51,16.50
2019,04,01,14,52,16.50
2019,04,01,14,53,16.50
2019,04,01,14,54,16.50
2019,04,01,14,55,16.50
2019,04,01,14,56,16.60
2019,04,01,14,57,16.60
2019,04,01,14,58,16.70
2019,04,01,14,59,16.80
2019,04,01,15,00,16.80
2019,04,01,15,01,16.80
2019,04,01,15,02,16.80
2019,04,01,15,03,16.90
2019,04,01,15,04,16.90
2019,04,01,15,05,17.00
2019,04,01,15,06,17.00
2019,04,01,15,07,17.00
2019,04,01,15,08,17.00
2019,04,01,15,09,17.00
2019,04,01,15,10,17.00
2019,04,01,15,11,17.00
2019,04,01,15,12,17.00
2019,04,01,15,13,17.00
2019,04,01,15,14,16.90
2019,04,01,15,15,17.00
2019,04,01,15,16,17.00
2019,04,01,15,17,17.00
2019,04,01,15,18,17.10
2019,04,01,15,19,17.10
2019,04,01,15,20,17.00
2019,04,01,15,21,17.10
2019,04,01,15,22,17.10
2019,04,01,15,23,17.10
2019,04,01,15,24,17.10
2019,04,01,15,25,17.10
2019,04,01,15,26,17.10
2019,04,01,15,27,17.10
2019,04,01,15,28,17.10
2019,04,01,15,29,17.20
2019,04,01,15,30,17.20
2019,04,01,15,31,17.20
2019,04,01,15,32,17.20
2019,04,01,15,33,17.20
2019,04,01,15,34,17.30
2019,04,01,15,35,17.30
2019,04,01,15,36,17.20
2019,04,01,15,37,17.20
2019,04,01,15,38,17.10
2019,04,01,15,39,17.10
2019,04,01,15,40,17.10
2019,04,01,15,41,17.10
2019,04,01,15,42,17.20
2019,04,01,15,43,17.20
2019,04,01,15,44,17.20
2019,04,01,15,45,17.20
2019,04,01,15,46,17.20
2019,04,01,15,47,17.10
2019,04,01,15,48,17.20
2019,04,01,15,49,17.20
2019,04,01,15,50,17.20
2019,04,01,15,51,17.20
2019,04,01,15,52,17.20
2019,04,01,15,53,17.20
2019,04,01,15,54,17.20
2019,04,01,15,55,17.20
2019,04,01,15,56,17.20
2019,04,01,15,57,17.20
2019,04,01,15,58,17.20
2019,04,01,15,59,17.20
2019,04,01,16,00,17.30
2019,04,01,16,01,17.30
2019,04,01,16,02,17.20
2019,04,01,16,03,17.20
2019,04,01,16,04,17.20
2019,04,01,16,05,17.20
2019,04,01,16,06,17.20
2019,04,01,16,07,17.20
2019,04,01,16,08,17.20
2019,04,01,16,09,17.20
2019,04,01,16,10,17.20
2019,04,01,16,11,17.20
2019,04,01,16,12,17.20
2019,04,01,16,13,17.20
2019,04,01,16,14,17.20
2019,04,01,16,15,17.20
2019,04,01,16,16,17.30
2019,04,01,16,17,17.30
2019,04,01,16,18,17.30
2019,04,01,16,19,17.30
2019,04,01,16,20,17.30
2019,04,01,16,21,17.30
2019,04,01,16,22,17.40
2019,04,01,16,23,17.40
2019,04,01,16,24,17.40
2019,04,01,16,25,17.40
2019,04,01,16,26,17.40
2019,04,01,16,27,17.50
2019,04,01,16,28,17.50
2019,04,01,16,29,17.60
2019,04,01,16,30,17.60
2019,04,01,16,31,17.60
2019,04,01,16,32,17.60
2019,04,01,16,33,17.60
2019,04,01,16,34,17.60
2019,04,01,16,35,17.60
2019,04,01,16,36,17.60
2019,04,01,16,37,17.60
2019,04,01,16,38,17.60
2019,04,01,16,39,17.60
2019,04,01,16,40,17.60
2019,04,01,16,41,17.70
2019,04,01,16,42,17.70
2019,04,01,16,43,17.70
2019,04,01,16,44,17.70
2019,04,01,16,45,17.70
2019,04,01,16,46,17.70
2019,04,01,16,47,17.80
2019,04,01,16,48,17.80
2019,04,01,16,49,17.80
2019,04,01,16,50,17.70
2019,04,01,16,51,17.70
2019,04,01,16,52,17.70
2019,04,01,16,53,17.60
2019,04,01,16,54,17.60
2019,04,01,16,55,17.60
2019,04,01,16,56,17.60
2019,04,01,16,57,17.60
2019,04,01,16,58,17.70
2019,04,01,16,59,17.70
2019,04,01,17,00,17.70
2019,04,01,17,01,17.70
2019,04,01,17,02,17.70
2019,04,01,17,03,17.70
2019,04,01,17,04,17.70
2019,04,01,17,05,17.70
2019,04,01,17,06,17.70
2019,04,01,17,07,17.70
2019,04,01,17,08,17.60
2019,04,01,17,09,17.50
2019,04,01,17,10,17.40
2019,04,01,17,11,17.30
2019,04,01,17,12,17.20
2019,04,01,17,13,17.20
2019,04,01,17,14,17.10
2019,04,01,17,15,17.00
2019,04,01,17,16,17.00
2019,04,01,17,17,16.90
2019,04,01,17,18,16.90
2019,04,01,17,19,16.80
2019,04,01,17,20,16.80
2019,04,01,17,21,16.70
2019,04,01,17,22,16.70
2019,04,01,17,23,16.70
2019,04,01,17,24,16.70
2019,04,01,17,25,16.60
2019,04,01,17,26,16.50
2019,04,01,17,27,16.40
2019,04,01,17,28,16.30
2019,04,01,17,29,16.20
2019,04,01,17,30,16.20
2019,04,01,17,31,16.10
2019,04,01,17,32,16.00
2019,04,01,17,33,15.90
2019,04,01,17,34,15.80
2019,04,01,17,35,15.70
2019,04,01,17,36,15.60
2019,04,01,17,37,15.40
2019,04,01,17,38,15.30
2019,04,01,17,39,15.20
2019,04,01,17,40,15.10
2019,04,01,17,41,14.90
2019,04,01,17,42,14.80